Location: Riddle Hill
(39.7867°N, 89.7645°W)
Time: 21:48:12
(UTC+00:00)

OAO 2 Rocket - Pass Details

Date: 29 October 2020
Orbit: 676 x 746 km, 35.0° (Epoch: 30 November)

Event Time Altitude Azimuth Distance (km) Brightness Sun altitude
Rises 23:35:00 0° 251° (WSW) 3,076 9.0 -7.4°
Reaches altitude 10° 23:37:30 10° 246° (WSW) 2,148 7.4 -7.8°
Maximum altitude 23:42:17 46° 173° (S) 915 4.0 -8.7°
Enters shadow 23:46:56 10° 101° (E) 2,088 5.2 -9.6°
